Location: Kirtland Hills
(41.6239°N, 81.3071°W)
Time: 18:07:39
(UTC+00:00)

Cosmos 1812 Rocket - Pass Details

Date: 29 October 2020
Orbit: 605 x 633 km, 82.5° (Epoch: 23 November)

Event Time Altitude Azimuth Distance (km) Brightness Sun altitude
Rises 23:47:47 0° 176° (S) 2,889 7.0 -16.4°
Reaches altitude 10° 23:50:02 10° 173° (S) 1,983 6.1 -16.8°
Maximum altitude 23:54:20 57° 95° (E) 727 3.5 -17.6°
Drops below altitude 10° 23:58:39 10° 16° (NNE) 1,981 6.0 -18.4°
Sets 00:00:53 0° 13° (NNE) 2,887 6.8 -18.8°
